EW7824 Weather Reports


time (UTC)temp
C
wind
direction
speed
KPH
gust
KPH
rain 1hr
cm
rain 24hr
cm
rain mn
cm
humidity
%
barometer
mb
20260507163902 17 201 19.3 27.4 0.00 0.00 0.00 43 1017.0
20260507163403 17 205 14.5 37.0 0.00 0.00 0.00 45 1016.9
20260507161903 16 261 22.5 35.4 0.00 0.00 0.00 45 1017.1
20260507161402 16 202 22.5 33.8 0.00 0.00 0.00 46 1017.1
20260507160902 16 249 25.7 40.2 0.00 0.00 0.00 47 1017.2
20260507160403 16 253 27.4 35.4 0.00 0.00 0.00 46 1017.3
20260507154902 16 239 12.9 35.4 0.00 0.00 0.00 50 1017.4
20260507154402 16 228 20.9 29.0 0.00 0.00 0.00 49 1017.4
20260507153902 15 251 24.1 33.8 0.00 0.00 0.00 50 1017.5
20260507151903 15 233 25.7 38.6 0.00 0.00 0.00 52 1017.7
20260507151402 15 232 24.1 33.8 0.00 0.00 0.00 52 1017.8
20260507150903 15 231 19.3 38.6 0.00 0.00 0.00 53 1017.8
20260507150403 14 238 16.1 35.4 0.00 0.00 0.00 56 1017.9
20260507144903 13 227 22.5 29.0 0.00 0.00 0.00 57 1018.1
20260507144403 13 205 24.1 29.0 0.00 0.00 0.00 57 1018.2
20260507143902 13 263 16.1 35.4 0.00 0.00 0.00 59 1018.3
20260507143403 13 257 19.3 27.4 0.00 0.00 0.00 60 1018.3
20260507141903 12 278 17.7 29.0 0.00 0.00 0.00 61 1018.5
20260507141403 12 231 19.3 24.1 0.00 0.00 0.00 62 1018.5
20260507140403 12 252 16.1 27.4 0.00 0.00 0.00 64 1018.6
20260507134903 11 253 14.5 25.7 0.00 0.00 0.00 66 1018.7
20260507134402 11 262 20.9 29.0 0.00 0.00 0.00 66 1018.7
20260507133902 11 257 16.1 22.5 0.00 0.00 0.00 67 1018.7
20260507133403 11 234 11.3 24.1 0.00 0.00 0.00 69 1018.6
20260507131903 10 257 11.3 16.1 0.00 0.00 0.00 72 1018.7
20260507131403 10 240 14.5 24.1 0.00 0.00 0.00 73 1018.8
20260507130903 10 256 11.3 14.5 0.00 0.00 0.00 74 1018.8
20260507130403 10 255 9.7 22.5 0.00 0.00 0.00 76 1018.8
20260507124403 8 256 11.3 14.5 0.00 0.00 0.00 81 1018.7
20260507123403 7 239 9.7 14.5 0.00 0.00 0.00 84 1018.7
20260507121903 6 260 8.0 12.9 0.00 0.00 0.00 85 1018.7
20260507121402 6 222 4.8 11.3 0.00 0.00 0.00 85 1018.7
20260507120402 6 231 4.8 8.0 0.00 0.00 0.00 85 1018.7
20260507114903 6 234 1.6 3.2 0.00 0.00 0.00 85 1018.7
20260507114403 6 224 3.2 8.0 0.00 0.00 0.00 85 1018.6
20260507113902 6 213 3.2 8.0 0.00 0.00 0.00 85 1018.6
20260507113405 6 242 4.8 9.7 0.00 0.00 0.00 84 1018.6
20260507111904 6 251 0.0 3.2 0.00 0.00 0.00 83 1018.5
20260507110903 6 243 0.0 3.2 0.00 0.00 0.00 83 1018.4
20260507110404 6 243 0.0 3.2 0.00 0.00 0.00 82 1018.5
20260507104903 6 243 0.0 0.0 0.00 0.00 0.00 81 1018.4
20260507103403 7 243 0.0 1.6 0.00 0.00 0.00 80 1018.4
20260507101403 7 243 0.0 8.0 0.00 0.03 0.00 78 1018.6
20260507100403 7 247 1.6 3.2 0.00 0.03 0.00 78 1018.7
20260507094903 8 267 1.6 3.2 0.00 0.03 0.00 77 1018.8
20260507094403 8 253 1.6 8.0 0.00 0.03 0.00 77 1018.8
20260507093903 8 242 4.8 9.7 0.00 0.03 0.00 76 1018.8
20260507093404 8 344 3.2 11.3 0.00 0.03 0.00 76 1018.9
20260507091403 8 251 3.2 3.2 0.00 0.03 0.00 74 1018.9
20260507090903 8 304 1.6 3.2 0.00 0.03 0.00 74 1018.9
20260507090403 9 349 1.6 3.2 0.00 0.03 0.00 73 1019.0
20260507084903 10 5 0.0 0.0 0.00 0.03 0.00 72 1019.0
20260507084403 10 296 0.0 0.0 0.00 0.03 0.00 71 1019.0
20260507083903 10 256 0.0 3.2 0.00 0.03 0.00 71 1019.0
20260507083403 10 258 0.0 8.0 0.00 0.03 0.00 71 1019.1
20260507081903 10 237 1.6 8.0 0.00 0.05 0.00 71 1019.1
20260507081403 10 268 3.2 8.0 0.00 0.05 0.00 71 1019.1
20260507080403 10 252 1.6 8.0 0.00 0.08 0.00 70 1019.2
20260507074403 10 254 0.0 1.6 0.00 0.10 0.00 70 1019.3
20260507073903 10 254 1.6 3.2 0.00 0.10 0.00 69 1019.3
20260507073403 10 254 1.6 8.0 0.00 0.13 0.00 69 1019.4
20260507071903 10 248 0.0 1.6 0.00 0.15 0.00 69 1019.5
20260507071403 10 248 1.6 3.2 0.00 0.18 0.00 68 1019.5
20260507070903 10 263 1.6 3.2 0.00 0.20 0.00 69 1019.6
20260507070404 10 274 1.6 8.0 0.00 0.23 0.00 68 1019.7
20260507064903 10 260 3.2 3.2 0.00 0.25 0.00 68 1019.7
20260507063903 10 245 1.6 3.2 0.00 0.30 0.00 70 1019.9
20260507061903 10 250 0.0 1.6 0.00 0.38 0.00 68 1019.8
20260507060904 10 250 0.0 0.0 0.00 0.43 0.00 68 1019.7
20260507060403 10 250 0.0 1.6 0.00 0.43 0.00 69 1019.8
20260507054904 10 250 0.0 1.6 0.00 0.46 0.00 68 1019.8
20260507054404 10 250 1.6 3.2 0.00 0.46 0.00 69 1019.8
20260507053904 10 309 1.6 3.2 0.00 0.46 0.00 70 1019.9
20260507053404 10 309 0.0 3.2 0.00 0.46 0.00 71 1019.9
20260507051904 10 309 1.6 1.6 0.00 0.46 0.00 71 1019.9
20260507051403 10 309 0.0 0.0 0.00 0.46 0.00 70 1019.8
20260507050903 10 309 0.0 0.0 0.00 0.46 0.00 71 1019.7
20260507050404 10 309 1.6 3.2 0.00 0.46 0.00 70 1019.8
20260507044904 10 309 0.0 0.0 0.00 0.46 0.46 69 1019.8
20260507044403 10 310 0.0 0.0 0.00 0.46 0.46 69 1019.7
20260507043904 10 309 0.0 0.0 0.00 0.46 0.46 69 1019.8
20260507041904 10 310 0.0 0.0 0.00 0.46 0.46 67 1019.6
20260507040903 11 309 0.0 0.0 0.00 0.46 0.46 65 1019.5
20260507040403 11 309 0.0 1.6 0.00 0.46 0.46 65 1019.7
20260507034904 11 309 0.0 0.0 0.00 0.46 0.46 62 1019.6
20260507033403 12 309 0.0 1.6 0.00 0.46 0.46 61 1019.9
20260507031904 12 309 0.0 0.0 0.00 0.46 0.46 59 1019.6
20260507031403 12 309 0.0 1.6 0.00 0.46 0.46 59 1019.5
20260507030404 12 330 0.0 0.0 0.00 0.46 0.46 59 1019.6
20260507023903 12 330 0.0 3.2 0.00 0.46 0.46 52 1019.4
20260507023405 12 313 0.0 8.0 0.00 0.46 0.46 53 1019.3
20260507021904 12 316 3.2 8.0 0.00 0.46 0.46 53 1019.2
20260507021404 12 42 0.0 1.6 0.00 0.46 0.46 52 1019.1
20260507020904 13 42 1.6 1.6 0.00 0.46 0.46 51 1019.1
20260507020404 13 42 0.0 8.0 0.00 0.46 0.46 52 1019.1
20260507014904 13 11 1.6 8.0 0.00 0.46 0.46 53 1018.8
20260507014405 13 338 0.0 1.6 0.00 0.46 0.46 53 1018.8
20260507013903 13 339 1.6 3.2 0.00 0.46 0.46 53 1018.7
20260507013403 13 32 0.0 3.2 0.00 0.46 0.46 52 1018.5
20260507011904 13 33 3.2 8.0 0.00 0.46 0.46 50 1018.4
20260507011404 13 355 0.0 1.6 0.00 0.46 0.46 50 1018.4
20260507010904 13 8 0.0 3.2 0.00 0.46 0.46 50 1018.4
20260507010404 13 28 3.2 14.5 0.00 0.46 0.46 48 1018.4
20260507003904 14 24 3.2 8.0 0.00 0.46 0.46 48 1018.5
20260507003404 14 345 1.6 9.7 0.00 0.46 0.46 46 1018.4
20260507001403 15 55 3.2 3.2 0.00 0.46 0.46 48 1018.4
20260507000904 15 10 6.4 11.3 0.00 0.46 0.46 47 1018.5
20260506234904 15 17 4.8 14.5 0.00 0.46 0.46 46 1018.4
20260506234403 15 30 4.8 14.5 0.00 0.46 0.46 45 1018.4
20260506233404 15 47 11.3 16.1 0.00 0.46 0.46 46 1018.3
20260506231903 16 38 9.7 16.1 0.00 0.46 0.46 45 1018.2
20260506231404 16 40 14.5 22.5 0.00 0.46 0.46 43 1018.2
20260506230903 16 21 14.5 25.7 0.00 0.46 0.46 43 1018.2
20260506230404 16 37 9.7 22.5 0.00 0.46 0.46 43 1018.2
20260506224905 16 48 11.3 14.5 0.00 0.46 0.46 40 1018.2
20260506223904 17 44 8.0 12.9 0.00 0.46 0.46 41 1018.0
20260506223405 17 42 9.7 20.9 0.00 0.46 0.46 41 1018.0
20260506221903 16 16 9.7 14.5 0.00 0.46 0.46 43 1017.9
20260506221402 16 56 14.5 20.9 0.00 0.46 0.46 40 1017.9
20260506220902 16 59 11.3 20.9 0.00 0.46 0.46 40 1017.9
20260506220403 16 66 3.2 20.9 0.00 0.46 0.46 39 1017.9
20260506214902 17 55 8.0 20.9 0.00 0.46 0.46 39 1018.1
20260506214402 17 319 12.9 24.1 0.00 0.46 0.46 41 1018.2
20260506213902 17 69 3.2 20.9 0.00 0.46 0.46 40 1018.2
20260506213402 16 320 4.8 22.5 0.00 0.46 0.46 40 1018.2
20260506211903 17 86 8.0 14.5 0.00 0.46 0.46 40 1018.4
20260506211402 17 51 3.2 11.3 0.00 0.46 0.46 38 1018.4
20260506210902 18 83 12.9 24.1 0.00 0.46 0.46 36 1018.4
20260506210403 18 49 11.3 24.1 0.00 0.46 0.46 40 1018.5
20260506204902 17 44 11.3 16.1 0.00 0.46 0.46 43 1018.8
20260506204402 17 88 4.8 11.3 0.00 0.46 0.46 39 1018.9
20260506203902 17 55 4.8 20.9 0.00 0.46 0.46 41 1019.0
20260506203402 16 66 9.7 16.1 0.00 0.46 0.46 41 1019.0
20260506201903 16 66 12.9 16.1 0.00 0.46 0.46 42 1019.3
20260506201403 16 65 4.8 12.9 0.00 0.46 0.46 41 1019.3
20260506200902 16 63 8.0 11.3 0.00 0.46 0.46 42 1019.5
20260506200403 17 105 9.7 20.9 0.00 0.46 0.46 37 1019.5
20260506194903 18 30 8.0 16.1 0.00 0.46 0.46 41 1019.7
20260506194402 18 32 11.3 22.5 0.00 0.46 0.46 43 1019.8
20260506193403 18 48 8.0 20.9 0.00 0.46 0.46 39 1019.9
20260506191902 15 30 9.7 14.5 0.00 0.46 0.46 41 1020.0
20260506191402 17 83 11.3 16.1 0.00 0.46 0.46 40 1020.0
20260506190902 17 49 8.0 20.9 0.00 0.46 0.46 42 1019.9
20260506190403 16 77 8.0 29.0 0.00 0.46 0.46 43 1019.9
20260506184903 16 38 16.1 27.4 0.00 0.46 0.46 42 1019.9
20260506184402 17 73 11.3 25.7 0.00 0.46 0.46 41 1019.9
20260506181902 16 58 12.9 27.4 0.00 0.46 0.46 42 1020.2
20260506181402 16 49 14.5 16.1 0.00 0.46 0.46 49 1020.3
20260506180903 16 64 12.9 24.1 0.00 0.46 0.46 45 1020.4
20260506180402 16 53 14.5 27.4 0.00 0.46 0.46 46 1020.5
20260506174902 15 61 9.7 14.5 0.00 0.46 0.46 49 1020.7
20260506173402 15 41 14.5 27.4 0.00 0.46 0.46 54 1020.8
20260506171902 14 67 16.1 22.5 0.00 0.46 0.46 61 1020.9
20260506170403 13 61 6.4 24.1 0.00 0.46 0.46 62 1020.9
20260506164903 12 51 12.9 25.7 0.00 0.46 0.46 65 1021.0
20260506164402 12 44 14.5 20.9 0.00 0.46 0.46 62 1021.0